Year,Month,Day,Hour,Minute,Value (Times are PST for temperature in C)
2014,07,15,00,00,18.30
2014,07,15,00,01,18.20
2014,07,15,00,02,18.20
2014,07,15,00,03,18.20
2014,07,15,00,04,18.20
2014,07,15,00,05,18.20
2014,07,15,00,06,18.10
2014,07,15,00,07,18.10
2014,07,15,00,08,18.10
2014,07,15,00,09,18.10
2014,07,15,00,10,18.10
2014,07,15,00,11,18.10
2014,07,15,00,12,18.00
2014,07,15,00,13,18.00
2014,07,15,00,14,18.00
2014,07,15,00,15,18.00
2014,07,15,00,16,18.00
2014,07,15,00,17,17.90
2014,07,15,00,18,17.90
2014,07,15,00,19,17.90
2014,07,15,00,20,17.90
2014,07,15,00,21,17.90
2014,07,15,00,22,17.90
2014,07,15,00,23,17.90
2014,07,15,00,24,17.90
2014,07,15,00,25,17.90
2014,07,15,00,26,17.90
2014,07,15,00,27,17.90
2014,07,15,00,28,17.80
2014,07,15,00,29,17.80
2014,07,15,00,30,17.80
2014,07,15,00,31,17.70
2014,07,15,00,32,17.70
2014,07,15,00,33,17.70
2014,07,15,00,34,17.70
2014,07,15,00,35,17.60
2014,07,15,00,36,17.60
2014,07,15,00,37,17.60
2014,07,15,00,38,17.50
2014,07,15,00,39,17.50
2014,07,15,00,40,17.40
2014,07,15,00,41,17.40
2014,07,15,00,42,17.40
2014,07,15,00,43,17.40
2014,07,15,00,44,17.30
2014,07,15,00,45,17.30
2014,07,15,00,46,17.30
2014,07,15,00,47,17.30
2014,07,15,00,48,17.30
2014,07,15,00,49,17.30
2014,07,15,00,50,17.30
2014,07,15,00,51,17.20
2014,07,15,00,52,17.20
2014,07,15,00,53,17.20
2014,07,15,00,54,17.20
2014,07,15,00,55,17.10
2014,07,15,00,56,17.10
2014,07,15,00,57,17.10
2014,07,15,00,58,17.10
2014,07,15,00,59,17.10
2014,07,15,01,00,17.00
2014,07,15,01,01,17.00
2014,07,15,01,02,17.00
2014,07,15,01,03,16.90
2014,07,15,01,04,16.90
2014,07,15,01,05,16.90
2014,07,15,01,06,16.90
2014,07,15,01,07,16.90
2014,07,15,01,08,16.90
2014,07,15,01,09,16.90
2014,07,15,01,10,16.90
2014,07,15,01,11,16.80
2014,07,15,01,12,16.80
2014,07,15,01,13,16.80
2014,07,15,01,14,16.80
2014,07,15,01,15,16.80
2014,07,15,01,16,16.70
2014,07,15,01,17,16.70
2014,07,15,01,18,16.70
2014,07,15,01,19,16.70
2014,07,15,01,20,16.70
2014,07,15,01,21,16.60
2014,07,15,01,22,16.60
2014,07,15,01,23,16.60
2014,07,15,01,24,16.60
2014,07,15,01,25,16.60
2014,07,15,01,26,16.60
2014,07,15,01,27,16.50
2014,07,15,01,28,16.50
2014,07,15,01,29,16.50
2014,07,15,01,30,16.40
2014,07,15,01,31,16.40
2014,07,15,01,32,16.40
2014,07,15,01,33,16.40
2014,07,15,01,34,16.30
2014,07,15,01,35,16.30
2014,07,15,01,36,16.30
2014,07,15,01,37,16.30
2014,07,15,01,38,16.30
2014,07,15,01,39,16.30
2014,07,15,01,40,16.30
2014,07,15,01,41,16.20
2014,07,15,01,42,16.20
2014,07,15,01,43,16.20
2014,07,15,01,44,16.20
2014,07,15,01,45,16.20
2014,07,15,01,46,16.20
2014,07,15,01,47,16.20
2014,07,15,01,48,16.20
2014,07,15,01,49,16.20
2014,07,15,01,50,16.20
2014,07,15,01,51,16.20
2014,07,15,01,52,16.20
2014,07,15,01,53,16.20
2014,07,15,01,54,16.20
2014,07,15,01,55,16.20
2014,07,15,01,56,16.20
2014,07,15,01,57,16.20
2014,07,15,01,58,16.20
2014,07,15,01,59,16.20
2014,07,15,02,00,16.20
2014,07,15,02,01,16.20
2014,07,15,02,02,16.20
2014,07,15,02,03,16.10
2014,07,15,02,04,16.10
2014,07,15,02,05,16.10
2014,07,15,02,06,16.10
2014,07,15,02,07,16.10
2014,07,15,02,08,16.10
2014,07,15,02,09,16.10
2014,07,15,02,10,16.10
2014,07,15,02,11,16.10
2014,07,15,02,12,16.10
2014,07,15,02,13,16.10
2014,07,15,02,14,16.00
2014,07,15,02,15,16.00
2014,07,15,02,16,16.00
2014,07,15,02,17,16.00
2014,07,15,02,18,15.90
2014,07,15,02,19,15.90
2014,07,15,02,20,15.90
2014,07,15,02,21,15.90
2014,07,15,02,22,15.90
2014,07,15,02,23,15.90
2014,07,15,02,24,15.90
2014,07,15,02,25,15.90
2014,07,15,02,26,15.80
2014,07,15,02,27,15.80
2014,07,15,02,28,15.80
2014,07,15,02,29,15.80
2014,07,15,02,30,15.80
2014,07,15,02,31,15.80
2014,07,15,02,32,15.80
2014,07,15,02,33,15.70
2014,07,15,02,34,15.70
2014,07,15,02,35,15.70
2014,07,15,02,36,15.70
2014,07,15,02,37,15.70
2014,07,15,02,38,15.70
2014,07,15,02,39,15.60
2014,07,15,02,40,15.60
2014,07,15,02,41,15.60
2014,07,15,02,42,15.60
2014,07,15,02,43,15.60
2014,07,15,02,44,15.50
2014,07,15,02,45,15.50
2014,07,15,02,46,15.50
2014,07,15,02,47,15.50
2014,07,15,02,48,15.40
2014,07,15,02,49,15.40
2014,07,15,02,50,15.40
2014,07,15,02,51,15.40
2014,07,15,02,52,15.40
2014,07,15,02,53,15.40
2014,07,15,02,54,15.40
2014,07,15,02,55,15.40
2014,07,15,02,56,15.40
2014,07,15,02,57,15.40
2014,07,15,02,58,15.40
2014,07,15,02,59,15.30
2014,07,15,03,00,15.30
2014,07,15,03,01,15.30
2014,07,15,03,02,15.30
2014,07,15,03,03,15.30
2014,07,15,03,04,15.30
2014,07,15,03,05,15.30
2014,07,15,03,06,15.30
2014,07,15,03,07,15.20
2014,07,15,03,08,15.20
2014,07,15,03,09,15.20
2014,07,15,03,10,15.20
2014,07,15,03,11,15.20
2014,07,15,03,12,15.20
2014,07,15,03,13,15.20
2014,07,15,03,14,15.10
2014,07,15,03,15,15.10
2014,07,15,03,16,15.10
2014,07,15,03,17,15.10
2014,07,15,03,18,15.10
2014,07,15,03,19,15.10
2014,07,15,03,20,15.00
2014,07,15,03,21,15.00
2014,07,15,03,22,15.00
2014,07,15,03,23,15.00
2014,07,15,03,24,15.00
2014,07,15,03,25,15.00
2014,07,15,03,26,15.00
2014,07,15,03,27,15.00
2014,07,15,03,28,15.00
2014,07,15,03,29,15.00
2014,07,15,03,30,15.00
2014,07,15,03,31,15.00
2014,07,15,03,32,15.00
2014,07,15,03,33,15.00
2014,07,15,03,34,15.00
2014,07,15,03,35,15.00
2014,07,15,03,36,15.00
2014,07,15,03,37,15.00
2014,07,15,03,38,15.00
2014,07,15,03,39,15.00
2014,07,15,03,40,15.00
2014,07,15,03,41,15.00
2014,07,15,03,42,15.00
2014,07,15,03,43,15.00
2014,07,15,03,44,15.00
2014,07,15,03,45,15.00
2014,07,15,03,46,15.00
2014,07,15,03,47,15.00
2014,07,15,03,48,15.00
2014,07,15,03,49,15.00
2014,07,15,03,50,15.00
2014,07,15,03,51,14.90
2014,07,15,03,52,14.90
2014,07,15,03,53,14.90
2014,07,15,03,54,14.90
2014,07,15,03,55,14.80
2014,07,15,03,56,14.80
2014,07,15,03,57,14.80
2014,07,15,03,58,14.80
2014,07,15,03,59,14.80
2014,07,15,04,00,14.80
2014,07,15,04,01,14.80
2014,07,15,04,02,14.70
2014,07,15,04,03,14.70
2014,07,15,04,04,14.70
2014,07,15,04,05,14.70
2014,07,15,04,06,14.70
2014,07,15,04,07,14.70
2014,07,15,04,08,14.70
2014,07,15,04,09,14.70
2014,07,15,04,10,14.70
2014,07,15,04,11,14.70
2014,07,15,04,12,14.70
2014,07,15,04,13,14.70
2014,07,15,04,14,14.60
2014,07,15,04,15,14.60
2014,07,15,04,16,14.60
2014,07,15,04,17,14.60
2014,07,15,04,18,14.60
2014,07,15,04,19,14.60
2014,07,15,04,20,14.60
2014,07,15,04,21,14.50
2014,07,15,04,22,14.50
2014,07,15,04,23,14.50
2014,07,15,04,24,14.40
2014,07,15,04,25,14.40
2014,07,15,04,26,14.40
2014,07,15,04,27,14.40
2014,07,15,04,28,14.40
2014,07,15,04,29,14.40
2014,07,15,04,30,14.30
2014,07,15,04,31,14.30
2014,07,15,04,32,14.30
2014,07,15,04,33,14.30
2014,07,15,04,34,14.30
2014,07,15,04,35,14.30
2014,07,15,04,36,14.30
2014,07,15,04,37,14.30
2014,07,15,04,38,14.20
2014,07,15,04,39,14.20
2014,07,15,04,40,14.20
2014,07,15,04,41,14.20
2014,07,15,04,42,14.20
2014,07,15,04,43,14.20
2014,07,15,04,44,14.20
2014,07,15,04,45,14.20
2014,07,15,04,46,14.20
2014,07,15,04,47,14.10
2014,07,15,04,48,14.10
2014,07,15,04,49,14.10
2014,07,15,04,50,14.10
2014,07,15,04,51,14.10
2014,07,15,04,52,14.10
2014,07,15,04,53,14.10
2014,07,15,04,54,14.10
2014,07,15,04,55,14.00
2014,07,15,04,56,14.00
2014,07,15,04,57,14.00
2014,07,15,04,58,14.00
2014,07,15,04,59,14.00
2014,07,15,05,00,13.90
2014,07,15,05,01,13.90
2014,07,15,05,02,13.90
2014,07,15,05,03,13.90
2014,07,15,05,04,13.90
2014,07,15,05,05,13.90
2014,07,15,05,06,13.90
2014,07,15,05,07,13.90
2014,07,15,05,08,13.90
2014,07,15,05,09,13.90
2014,07,15,05,10,13.90
2014,07,15,05,11,13.90
2014,07,15,05,12,13.90
2014,07,15,05,13,13.90
2014,07,15,05,14,14.00
2014,07,15,05,15,14.00
2014,07,15,05,16,14.00
2014,07,15,05,17,14.10
2014,07,15,05,18,14.10
2014,07,15,05,19,14.10
2014,07,15,05,20,14.20
2014,07,15,05,21,14.20
2014,07,15,05,22,14.20
2014,07,15,05,23,14.30
2014,07,15,05,24,14.30
2014,07,15,05,25,14.30
2014,07,15,05,26,14.30
2014,07,15,05,27,14.30
2014,07,15,05,28,14.30
2014,07,15,05,29,14.30
2014,07,15,05,30,14.40
2014,07,15,05,31,14.30
2014,07,15,05,32,14.40
2014,07,15,05,33,14.40
2014,07,15,05,34,14.40
2014,07,15,05,35,14.40
2014,07,15,05,36,14.40
2014,07,15,05,37,14.40
2014,07,15,05,38,14.40
2014,07,15,05,39,14.40
2014,07,15,05,40,14.40
2014,07,15,05,41,14.40
2014,07,15,05,42,14.40
2014,07,15,05,43,14.40
2014,07,15,05,44,14.40
2014,07,15,05,45,14.40
2014,07,15,05,46,14.40
2014,07,15,05,47,14.40
2014,07,15,05,48,14.40
2014,07,15,05,49,14.40
2014,07,15,05,50,14.40
2014,07,15,05,51,14.40
2014,07,15,05,52,14.40
2014,07,15,05,53,14.40
2014,07,15,05,54,14.40
2014,07,15,05,55,14.40
2014,07,15,05,56,14.40
2014,07,15,05,57,14.40
2014,07,15,05,58,14.40
2014,07,15,05,59,14.40
2014,07,15,06,00,14.40
2014,07,15,06,01,14.40
2014,07,15,06,02,14.40
2014,07,15,06,03,14.40
2014,07,15,06,04,14.40
2014,07,15,06,05,14.40
2014,07,15,06,06,14.40
2014,07,15,06,07,14.40
2014,07,15,06,08,14.40
2014,07,15,06,09,14.40
2014,07,15,06,10,14.40
2014,07,15,06,11,14.40
2014,07,15,06,12,14.40
2014,07,15,06,13,14.40
2014,07,15,06,14,14.40
2014,07,15,06,15,14.40
2014,07,15,06,16,14.40
2014,07,15,06,17,14.40
2014,07,15,06,18,14.40
2014,07,15,06,19,14.40
2014,07,15,06,20,14.40
2014,07,15,06,21,14.40
2014,07,15,06,22,14.40
2014,07,15,06,23,14.40
2014,07,15,06,24,14.40
2014,07,15,06,25,14.40
2014,07,15,06,26,14.40
2014,07,15,06,27,14.40
2014,07,15,06,28,14.40
2014,07,15,06,29,14.40
2014,07,15,06,30,14.40
2014,07,15,06,31,14.40
2014,07,15,06,32,14.40
2014,07,15,06,33,14.40
2014,07,15,06,34,14.40
2014,07,15,06,35,14.40
2014,07,15,06,36,14.50
2014,07,15,06,37,14.50
2014,07,15,06,38,14.50
2014,07,15,06,39,14.50
2014,07,15,06,40,14.50
2014,07,15,06,41,14.50
2014,07,15,06,42,14.50
2014,07,15,06,43,14.50
2014,07,15,06,44,14.50
2014,07,15,06,45,14.50
2014,07,15,06,46,14.50
2014,07,15,06,47,14.40
2014,07,15,06,48,14.40
2014,07,15,06,49,14.40
2014,07,15,06,50,14.40
2014,07,15,06,51,14.40
2014,07,15,06,52,14.40
2014,07,15,06,53,14.40
2014,07,15,06,54,14.40
2014,07,15,06,55,14.40
2014,07,15,06,56,14.40
2014,07,15,06,57,14.40
2014,07,15,06,58,14.40
2014,07,15,06,59,14.40
2014,07,15,07,00,14.40
2014,07,15,07,01,14.40
2014,07,15,07,02,14.40
2014,07,15,07,03,14.40
2014,07,15,07,04,14.40
2014,07,15,07,05,14.40
2014,07,15,07,06,14.40
2014,07,15,07,07,14.40
2014,07,15,07,08,14.40
2014,07,15,07,09,14.40
2014,07,15,07,10,14.50
2014,07,15,07,11,14.50
2014,07,15,07,12,14.50
2014,07,15,07,13,14.60
2014,07,15,07,14,14.60
2014,07,15,07,15,14.60
2014,07,15,07,16,14.70
2014,07,15,07,17,14.70
2014,07,15,07,18,14.70
2014,07,15,07,19,14.70
2014,07,15,07,20,14.70
2014,07,15,07,21,14.70
2014,07,15,07,22,14.70
2014,07,15,07,23,14.70
2014,07,15,07,24,14.70
2014,07,15,07,25,14.80
2014,07,15,07,26,14.80
2014,07,15,07,27,14.80
2014,07,15,07,28,14.80
2014,07,15,07,29,14.80
2014,07,15,07,30,14.90
2014,07,15,07,31,14.80
2014,07,15,07,32,14.80
2014,07,15,07,33,14.80
2014,07,15,07,34,14.80
2014,07,15,07,35,14.80
2014,07,15,07,36,14.80
2014,07,15,07,37,14.90
2014,07,15,07,38,14.90
2014,07,15,07,39,15.00
2014,07,15,07,40,15.00
2014,07,15,07,41,15.00
2014,07,15,07,42,15.00
2014,07,15,07,43,15.00
2014,07,15,07,44,15.00
2014,07,15,07,45,15.00
2014,07,15,07,46,15.00
2014,07,15,07,47,15.00
2014,07,15,07,48,15.00
2014,07,15,07,49,15.00
2014,07,15,07,50,15.00
2014,07,15,07,51,15.00
2014,07,15,07,52,15.00
2014,07,15,07,53,15.10
2014,07,15,07,54,15.10
2014,07,15,07,55,15.10
2014,07,15,07,56,15.20
2014,07,15,07,57,15.20
2014,07,15,07,58,15.20
2014,07,15,07,59,15.20
2014,07,15,08,00,15.20
2014,07,15,08,01,15.20
2014,07,15,08,02,15.20
2014,07,15,08,03,15.20
2014,07,15,08,04,15.20
2014,07,15,08,05,15.20
2014,07,15,08,06,15.20
2014,07,15,08,07,15.20
2014,07,15,08,08,15.20
2014,07,15,08,09,15.20
2014,07,15,08,10,15.30
2014,07,15,08,11,15.30
2014,07,15,08,12,15.40
2014,07,15,08,13,15.40
2014,07,15,08,14,15.40
2014,07,15,08,15,15.40
2014,07,15,08,16,15.50
2014,07,15,08,17,15.50
2014,07,15,08,18,15.50
2014,07,15,08,19,15.60
2014,07,15,08,20,15.60
2014,07,15,08,21,15.60
2014,07,15,08,22,15.60
2014,07,15,08,23,15.60
2014,07,15,08,24,15.60
2014,07,15,08,25,15.60
2014,07,15,08,26,15.60
2014,07,15,08,27,15.60
2014,07,15,08,28,15.60
2014,07,15,08,29,15.70
2014,07,15,08,30,15.70
2014,07,15,08,31,15.80
2014,07,15,08,32,15.80
2014,07,15,08,33,15.90
2014,07,15,08,34,16.00
2014,07,15,08,35,16.00
2014,07,15,08,36,16.10
2014,07,15,08,37,16.10
2014,07,15,08,38,16.20
2014,07,15,08,39,16.30
2014,07,15,08,40,16.30
2014,07,15,08,41,16.40
2014,07,15,08,42,16.40
2014,07,15,08,43,16.50
2014,07,15,08,44,16.50
2014,07,15,08,45,16.60
2014,07,15,08,46,16.70
2014,07,15,08,47,16.70
2014,07,15,08,48,16.80
2014,07,15,08,49,16.80
2014,07,15,08,50,16.90
2014,07,15,08,51,16.90
2014,07,15,08,52,17.00
2014,07,15,08,53,17.10
2014,07,15,08,54,17.10
2014,07,15,08,55,17.10
2014,07,15,08,56,17.10
2014,07,15,08,57,17.20
2014,07,15,08,58,17.20
2014,07,15,08,59,17.20
2014,07,15,09,00,17.30
2014,07,15,09,01,17.30
2014,07,15,09,02,17.30
2014,07,15,09,03,17.40
2014,07,15,09,04,17.50
2014,07,15,09,05,17.60
2014,07,15,09,06,17.70
2014,07,15,09,07,17.80
2014,07,15,09,08,17.90
2014,07,15,09,09,17.90
2014,07,15,09,10,18.00
2014,07,15,09,11,18.10
2014,07,15,09,12,18.10
2014,07,15,09,13,18.20
2014,07,15,09,14,18.20
2014,07,15,09,15,18.20
2014,07,15,09,16,18.20
2014,07,15,09,17,18.30
2014,07,15,09,18,18.30
2014,07,15,09,19,18.30
2014,07,15,09,20,18.30
2014,07,15,09,21,18.30
2014,07,15,09,22,18.40
2014,07,15,09,23,18.40
2014,07,15,09,24,18.40
2014,07,15,09,25,18.50
2014,07,15,09,26,18.50
2014,07,15,09,27,18.50
2014,07,15,09,28,18.60
2014,07,15,09,29,18.70
2014,07,15,09,30,18.80
2014,07,15,09,31,19.00
2014,07,15,09,32,19.10
2014,07,15,09,33,19.20
2014,07,15,09,34,19.40
2014,07,15,09,35,19.50
2014,07,15,09,36,19.60
2014,07,15,09,37,19.70
2014,07,15,09,38,19.90
2014,07,15,09,39,20.00
2014,07,15,09,40,20.10
2014,07,15,09,41,20.20
2014,07,15,09,42,20.30
2014,07,15,09,43,20.50
2014,07,15,09,44,20.60
2014,07,15,09,45,20.60
2014,07,15,09,46,20.70
2014,07,15,09,47,20.80
2014,07,15,09,48,20.90
2014,07,15,09,49,21.10
2014,07,15,09,50,21.20
2014,07,15,09,51,21.30
2014,07,15,09,52,21.40
2014,07,15,09,53,21.50
2014,07,15,09,54,21.60
2014,07,15,09,55,21.70
2014,07,15,09,56,21.80
2014,07,15,09,57,21.90
2014,07,15,09,58,22.00
2014,07,15,09,59,22.10
2014,07,15,10,00,22.20
2014,07,15,10,01,22.30
2014,07,15,10,02,22.30
2014,07,15,10,03,22.40
2014,07,15,10,04,22.50
2014,07,15,10,05,22.60
2014,07,15,10,06,22.60
2014,07,15,10,07,22.70
2014,07,15,10,08,22.70
2014,07,15,10,09,22.70
2014,07,15,10,10,22.70
2014,07,15,10,11,22.80
2014,07,15,10,12,22.80
2014,07,15,10,13,22.90
2014,07,15,10,14,22.90
2014,07,15,10,15,22.90
2014,07,15,10,16,22.90
2014,07,15,10,17,23.00
2014,07,15,10,18,23.00
2014,07,15,10,19,23.10
2014,07,15,10,20,23.10
2014,07,15,10,21,23.20
2014,07,15,10,22,23.30
2014,07,15,10,23,23.40
2014,07,15,10,24,23.40
2014,07,15,10,25,23.50
2014,07,15,10,26,23.60
2014,07,15,10,27,23.70
2014,07,15,10,28,23.80
2014,07,15,10,29,23.80
2014,07,15,10,30,23.80
2014,07,15,10,31,23.90
2014,07,15,10,32,23.90
2014,07,15,10,33,23.90
2014,07,15,10,34,23.90
2014,07,15,10,35,23.90
2014,07,15,10,36,23.90
2014,07,15,10,37,23.90
2014,07,15,10,38,24.00
2014,07,15,10,39,24.10
2014,07,15,10,40,24.10
2014,07,15,10,41,24.20
2014,07,15,10,42,24.30
2014,07,15,10,43,24.40
2014,07,15,10,44,24.50
2014,07,15,10,45,24.60
2014,07,15,10,46,24.60
2014,07,15,10,47,24.70
2014,07,15,10,48,24.70
2014,07,15,10,49,24.80
2014,07,15,10,50,24.90
2014,07,15,10,51,25.00
2014,07,15,10,52,25.00
2014,07,15,10,53,25.10
2014,07,15,10,54,25.10
2014,07,15,10,55,25.20
2014,07,15,10,56,25.30
2014,07,15,10,57,25.30
2014,07,15,10,58,25.40
2014,07,15,10,59,25.40
2014,07,15,11,00,25.50
2014,07,15,11,01,25.50
2014,07,15,11,02,25.60
2014,07,15,11,03,25.60
2014,07,15,11,04,25.70
2014,07,15,11,05,25.70
2014,07,15,11,06,25.80
2014,07,15,11,07,25.80
2014,07,15,11,08,25.90
2014,07,15,11,09,25.90
2014,07,15,11,10,26.00
2014,07,15,11,11,26.10
2014,07,15,11,12,26.20
2014,07,15,11,13,26.20
2014,07,15,11,14,26.30
2014,07,15,11,15,26.30
2014,07,15,11,16,26.30
2014,07,15,11,17,26.30
2014,07,15,11,18,26.20
2014,07,15,11,19,26.20
2014,07,15,11,20,26.20
2014,07,15,11,21,26.10
2014,07,15,11,22,26.10
2014,07,15,11,23,26.00
2014,07,15,11,24,25.90
2014,07,15,11,25,25.90
2014,07,15,11,26,25.90
2014,07,15,11,27,25.90
2014,07,15,11,28,25.90
2014,07,15,11,29,26.00
2014,07,15,11,30,26.00
2014,07,15,11,31,26.10
2014,07,15,11,32,26.10
2014,07,15,11,33,26.20
2014,07,15,11,34,26.20
2014,07,15,11,35,26.20
2014,07,15,11,36,26.20
2014,07,15,11,37,26.20
2014,07,15,11,38,26.20
2014,07,15,11,39,26.20
2014,07,15,11,40,26.20
2014,07,15,11,41,26.20
2014,07,15,11,42,26.20
2014,07,15,11,43,26.30
2014,07,15,11,44,26.30
2014,07,15,11,45,26.20
2014,07,15,11,46,26.20
2014,07,15,11,47,26.20
2014,07,15,11,48,26.20
2014,07,15,11,49,26.20
2014,07,15,11,50,26.20
2014,07,15,11,51,26.30
2014,07,15,11,52,26.40
2014,07,15,11,53,26.40
2014,07,15,11,54,26.40
2014,07,15,11,55,26.40
2014,07,15,11,56,26.50
2014,07,15,11,57,26.50
2014,07,15,11,58,26.60
2014,07,15,11,59,26.60
2014,07,15,12,00,26.70
2014,07,15,12,01,26.60
2014,07,15,12,02,26.60
2014,07,15,12,03,26.70
2014,07,15,12,04,26.70
2014,07,15,12,05,26.70
2014,07,15,12,06,26.70
2014,07,15,12,07,26.80
2014,07,15,12,08,26.80
2014,07,15,12,09,26.90
2014,07,15,12,10,27.00
2014,07,15,12,11,27.00
2014,07,15,12,12,27.10
2014,07,15,12,13,27.10
2014,07,15,12,14,27.20
2014,07,15,12,15,27.30
2014,07,15,12,16,27.30
2014,07,15,12,17,27.40
2014,07,15,12,18,27.50
2014,07,15,12,19,27.60
2014,07,15,12,20,27.70
2014,07,15,12,21,27.70
2014,07,15,12,22,27.70
2014,07,15,12,23,27.60
2014,07,15,12,24,27.60
2014,07,15,12,25,27.50
2014,07,15,12,26,27.40
2014,07,15,12,27,27.40
2014,07,15,12,28,27.40
2014,07,15,12,29,27.30
2014,07,15,12,30,27.30
2014,07,15,12,31,27.30
2014,07,15,12,32,27.40
2014,07,15,12,33,27.40
2014,07,15,12,34,27.40
2014,07,15,12,35,27.30
2014,07,15,12,36,27.30
2014,07,15,12,37,27.40
2014,07,15,12,38,27.40
2014,07,15,12,39,27.40
2014,07,15,12,40,27.40
2014,07,15,12,41,27.40
2014,07,15,12,42,27.40
2014,07,15,12,43,27.50
2014,07,15,12,44,27.50
2014,07,15,12,45,27.60
2014,07,15,12,46,27.60
2014,07,15,12,47,27.70
2014,07,15,12,48,27.70
2014,07,15,12,49,27.80
2014,07,15,12,50,27.80
2014,07,15,12,51,27.90
2014,07,15,12,52,27.90
2014,07,15,12,53,27.90
2014,07,15,12,54,28.00
2014,07,15,12,55,28.00
2014,07,15,12,56,28.10
2014,07,15,12,57,28.10
2014,07,15,12,58,28.00
2014,07,15,12,59,28.00
2014,07,15,13,00,28.00
2014,07,15,13,01,28.10
2014,07,15,13,02,28.10
2014,07,15,13,03,28.20
2014,07,15,13,04,28.20
2014,07,15,13,05,28.20
2014,07,15,13,06,28.30
2014,07,15,13,07,28.30
2014,07,15,13,08,28.40
2014,07,15,13,09,28.40
2014,07,15,13,10,28.40
2014,07,15,13,11,28.40
2014,07,15,13,12,28.40
2014,07,15,13,13,28.40
2014,07,15,13,14,28.50
2014,07,15,13,15,28.50
2014,07,15,13,16,28.50
2014,07,15,13,17,28.50
2014,07,15,13,18,28.50
2014,07,15,13,19,28.50
2014,07,15,13,20,28.50
2014,07,15,13,21,28.60
2014,07,15,13,22,28.60
2014,07,15,13,23,28.60
2014,07,15,13,24,28.70
2014,07,15,13,25,28.70
2014,07,15,13,26,28.80
2014,07,15,13,27,28.80
2014,07,15,13,28,28.80
2014,07,15,13,29,28.90
2014,07,15,13,30,28.90
2014,07,15,13,31,29.00
2014,07,15,13,32,29.00
2014,07,15,13,33,29.00
2014,07,15,13,34,29.10
2014,07,15,13,35,29.10
2014,07,15,13,36,29.20
2014,07,15,13,37,29.20
2014,07,15,13,38,29.20
2014,07,15,13,39,29.10
2014,07,15,13,40,29.10
2014,07,15,13,41,29.10
2014,07,15,13,42,29.10
2014,07,15,13,43,29.10
2014,07,15,13,44,29.20
2014,07,15,13,45,29.30
2014,07,15,13,46,29.30
2014,07,15,13,47,29.40
2014,07,15,13,48,29.50
2014,07,15,13,49,29.60
2014,07,15,13,50,29.70
2014,07,15,13,51,29.60
2014,07,15,13,52,29.60
2014,07,15,13,53,29.60
2014,07,15,13,54,29.60
2014,07,15,13,55,29.60
2014,07,15,13,56,29.70
2014,07,15,13,57,29.70
2014,07,15,13,58,29.60
2014,07,15,13,59,29.60
2014,07,15,14,00,29.60
2014,07,15,14,01,29.60
2014,07,15,14,02,29.70
2014,07,15,14,03,29.70
2014,07,15,14,04,29.80
2014,07,15,14,05,29.90
2014,07,15,14,06,29.90
2014,07,15,14,07,30.00
2014,07,15,14,08,30.00
2014,07,15,14,09,29.90
2014,07,15,14,10,30.00
2014,07,15,14,11,30.00
2014,07,15,14,12,29.90
2014,07,15,14,13,29.90
2014,07,15,14,14,29.90
2014,07,15,14,15,30.00
2014,07,15,14,16,30.10
2014,07,15,14,17,30.10
2014,07,15,14,18,30.20
2014,07,15,14,19,30.20
2014,07,15,14,20,30.30
2014,07,15,14,21,30.30
2014,07,15,14,22,30.30
2014,07,15,14,23,30.30
2014,07,15,14,24,30.30
2014,07,15,14,25,30.30
2014,07,15,14,26,30.30
2014,07,15,14,27,30.30
2014,07,15,14,28,30.40
2014,07,15,14,29,30.40
2014,07,15,14,30,30.50
2014,07,15,14,31,30.50
2014,07,15,14,32,30.40
2014,07,15,14,33,30.40
2014,07,15,14,34,30.30
2014,07,15,14,35,30.40
2014,07,15,14,36,30.40
2014,07,15,14,37,30.40
2014,07,15,14,38,30.40
2014,07,15,14,39,30.40
2014,07,15,14,40,30.50
2014,07,15,14,41,30.50
2014,07,15,14,42,30.60
2014,07,15,14,43,30.60
2014,07,15,14,44,30.60
2014,07,15,14,45,30.60
2014,07,15,14,46,30.60
2014,07,15,14,47,30.70
2014,07,15,14,48,30.70
2014,07,15,14,49,30.80
2014,07,15,14,50,30.80
2014,07,15,14,51,30.80
2014,07,15,14,52,30.70
2014,07,15,14,53,30.70
2014,07,15,14,54,30.80
2014,07,15,14,55,30.80
2014,07,15,14,56,30.80
2014,07,15,14,57,30.70
2014,07,15,14,58,30.60
2014,07,15,14,59,30.60
2014,07,15,15,00,30.60
2014,07,15,15,01,30.50
2014,07,15,15,02,30.50
2014,07,15,15,03,30.50
2014,07,15,15,04,30.50
2014,07,15,15,05,30.60
2014,07,15,15,06,30.60
2014,07,15,15,07,30.70
2014,07,15,15,08,30.70
2014,07,15,15,09,30.70
2014,07,15,15,10,30.70
2014,07,15,15,11,30.70
2014,07,15,15,12,30.70
2014,07,15,15,13,30.70
2014,07,15,15,14,30.70
2014,07,15,15,15,30.80
2014,07,15,15,16,30.80
2014,07,15,15,17,30.80
2014,07,15,15,18,30.80
2014,07,15,15,19,30.80
2014,07,15,15,20,30.80
2014,07,15,15,21,30.80
2014,07,15,15,22,30.80
2014,07,15,15,23,30.80
2014,07,15,15,24,30.90
2014,07,15,15,25,30.80
2014,07,15,15,26,30.80
2014,07,15,15,27,30.80
2014,07,15,15,28,30.80
2014,07,15,15,29,30.70
2014,07,15,15,30,30.80
2014,07,15,15,31,30.80
2014,07,15,15,32,30.80
2014,07,15,15,33,30.80
2014,07,15,15,34,30.90
2014,07,15,15,35,30.90
2014,07,15,15,36,30.90
2014,07,15,15,37,30.90
2014,07,15,15,38,30.80
2014,07,15,15,39,30.80
2014,07,15,15,40,30.80
2014,07,15,15,41,30.80
2014,07,15,15,42,30.80
2014,07,15,15,43,30.80
2014,07,15,15,44,30.80
2014,07,15,15,45,30.90
2014,07,15,15,46,30.90
2014,07,15,15,47,30.90
2014,07,15,15,48,31.00
2014,07,15,15,49,31.00
2014,07,15,15,50,31.00
2014,07,15,15,51,31.00
2014,07,15,15,52,31.00
2014,07,15,15,53,31.00
2014,07,15,15,54,31.00
2014,07,15,15,55,31.10
2014,07,15,15,56,31.10
2014,07,15,15,57,31.20
2014,07,15,15,58,31.20
2014,07,15,15,59,31.20
2014,07,15,16,00,31.20
2014,07,15,16,01,31.20
2014,07,15,16,02,31.20
2014,07,15,16,03,31.20
2014,07,15,16,04,31.20
2014,07,15,16,05,31.30
2014,07,15,16,06,31.30
2014,07,15,16,07,31.30
2014,07,15,16,08,31.40
2014,07,15,16,09,31.40
2014,07,15,16,10,31.50
2014,07,15,16,11,31.50
2014,07,15,16,12,31.60
2014,07,15,16,13,31.60
2014,07,15,16,14,31.60
2014,07,15,16,15,31.60
2014,07,15,16,16,31.70
2014,07,15,16,17,31.70
2014,07,15,16,18,31.80
2014,07,15,16,19,31.80
2014,07,15,16,20,31.70
2014,07,15,16,21,31.60
2014,07,15,16,22,31.60
2014,07,15,16,23,31.50
2014,07,15,16,24,31.50
2014,07,15,16,25,31.40
2014,07,15,16,26,31.30
2014,07,15,16,27,31.30
2014,07,15,16,28,31.20
2014,07,15,16,29,31.20
2014,07,15,16,30,31.20
2014,07,15,16,31,31.20
2014,07,15,16,32,31.10
2014,07,15,16,33,31.10
2014,07,15,16,34,31.10
2014,07,15,16,35,31.00
2014,07,15,16,36,31.00
2014,07,15,16,37,30.90
2014,07,15,16,38,30.90
2014,07,15,16,39,30.90
2014,07,15,16,40,30.90
2014,07,15,16,41,30.90
2014,07,15,16,42,31.00
2014,07,15,16,43,31.00
2014,07,15,16,44,31.10
2014,07,15,16,45,31.10
2014,07,15,16,46,31.20
2014,07,15,16,47,31.30
2014,07,15,16,48,31.30
2014,07,15,16,49,31.30
2014,07,15,16,50,31.30
2014,07,15,16,51,31.30
2014,07,15,16,52,31.20
2014,07,15,16,53,31.10
2014,07,15,16,54,31.10
2014,07,15,16,55,31.10
2014,07,15,16,56,31.10
2014,07,15,16,57,31.10
2014,07,15,16,58,31.10
2014,07,15,16,59,31.10
2014,07,15,17,00,31.00
2014,07,15,17,01,31.00
2014,07,15,17,02,31.00
2014,07,15,17,03,30.90
2014,07,15,17,04,30.90
2014,07,15,17,05,30.90
2014,07,15,17,06,30.90
2014,07,15,17,07,30.90
2014,07,15,17,08,30.90
2014,07,15,17,09,30.90
2014,07,15,17,10,30.90
2014,07,15,17,11,30.90
2014,07,15,17,12,30.90
2014,07,15,17,13,30.90
2014,07,15,17,14,30.90
2014,07,15,17,15,30.90
2014,07,15,17,16,30.80
2014,07,15,17,17,30.80
2014,07,15,17,18,30.80
2014,07,15,17,19,30.80